Location: Bacea
(45.9500°N, 22.6667°E)
Time: 00:21:27
(UTC+00:00)

ATLAS 5 CENTAUR R/B - Pass Details

Date: 16 October 2021
Orbit: 497 x 1159 km, 63.4° (Epoch: 25 November)

Event Time Altitude Azimuth Distance (km) Brightness Sun altitude
Rises 18:41:55 0° 249° (WSW) 2,623 5.4 -31.7°
Reaches altitude 10° 18:44:11 10° 261° (W) 1,784 4.6 -32.1°
Enters shadow 18:46:05 22° 285° (WNW) 1,242 3.7 -32.4°
